Theta_e
313 313 314 314 314 313 313 313 312 311 311 311 310 310 310 310 310 310 310 310 310 309 309 308 307 307 306 306 306 306 306 307 308 308 308 307 307 307 306 306 305 305 306 305 305 305 305 303 302 303 303 302 301 301 300 299 299 299 299 299 298 298 297 296 294 294 297 300 299 300 301 302 301 302 302 303 304 305 308 307 308 309 310 313 318
312 312 313 312 312 312 311 311 311 311 311 310 310 309 309 309 310 309 309 309 309 308 307 309 307 306 305 305 305 304 305 305 306 306 306 307 306 307 307 306 305 305 305 303 304 305 304 303 302 302 302 301 299 299 298 298 298 297 297 298 297 297 298 296 295 294 293 297 297 299 300 301 299 301 301 301 302 304 304 305 307 308 309 309 310
311 311 311 311 311 310 310 310 309 310 309 309 309 308 309 309 309 308 307 308 308 308 308 307 307 305 304 304 303 302 302 303 304 304 305 306 305 306 307 306 305 304 304 303 303 303 302 302 301 301 301 299 299 298 299 298 298 297 297 297 296 297 297 297 296 294 293 294 297 297 297 299 298 299 300 301 302 303 302 303 304 306 307 308 308
311 310 310 310 310 310 309 310 309 309 308 308 308 308 308 308 308 308 307 307 306 308 307 306 306 305 304 302 301 300 301 301 302 303 304 305 305 305 305 305 305 304 304 303 303 302 301 301 300 300 300 298 298 297 298 297 297 297 296 296 296 296 297 297 297 295 294 293 295 295 297 297 298 299 300 301 300 301 301 302 303 304 305 307 309
310 309 310 309 309 309 309 309 308 308 308 308 308 308 308 308 308 306 307 306 307 307 307 306 305 303 303 301 300 299 299 300 300 301 303 305 306 306 305 305 305 304 304 303 303 302 301 300 300 299 299 297 297 296 297 297 297 296 296 296 296 296 297 296 296 296 294 293 294 296 297 297 298 299 299 298 299 299 300 300 301 302 304 305 305
310 309 309 308 308 308 308 308 307 307 307 307 307 307 307 307 307 307 306 305 306 306 306 305 304 301 301 300 299 299 299 299 299 299 301 303 305 306 305 305 305 304 303 303 302 302 300 300 300 299 298 297 296 297 297 296 296 296 295 295 295 295 295 295 296 295 295 294 294 294 296 296 296 297 298 298 297 297 297 299 300 301 301 300 302
309 308 308 307 307 307 307 307 307 307 307 307 307 306 307 307 306 305 306 306 306 305 305 305 304 302 300 299 299 299 298 298 297 298 299 300 302 304 305 305 304 304 303 302 302 301 301 301 300 299 298 298 297 297 296 295 296 295 295 295 295 295 295 295 295 295 295 294 295 295 295 296 296 295 297 299 298 297 296 296 296 299 300 300 300
308 307 307 306 306 306 306 307 306 306 306 306 305 306 306 306 306 306 306 306 306 305 305 305 304 302 301 299 299 299 298 297 296 296 297 298 299 302 305 304 304 303 303 303 303 302 301 300 301 299 299 299 298 296 296 294 295 294 294 295 295 295 294 295 295 295 294 294 294 293 294 294 295 296 297 297 296 296 297 296 294 296 297 299 300
307 307 306 305 305 306 306 306 306 306 305 306 306 306 305 306 305 305 305 306 307 306 306 305 303 301 300 299 298 298 297 296 295 294 294 296 297 300 303 304 303 302 302 303 303 302 301 301 302 299 303 303 299 299 299 298 295 293 294 294 294 294 294 295 295 294 294 294 293 294 294 293 294 294 294 294 294 294 296 297 296 297 297 297 298
307 306 305 305 305 304 305 305 304 305 304 304 304 304 304 305 305 305 305 305 306 306 305 304 301 300 299 298 298 297 296 296 295 293 294 294 296 299 301 304 303 303 302 301 303 302 303 301 302 304 303 302 300 297 295 296 297 296 294 294 294 294 295 294 294 294 293 292 292 293 292 292 293 293 293 294 295 296 295 295 293 294 295 294 296
306 305 304 304 304 304 304 304 304 303 303 304 304 303 303 304 304 304 304 305 306 306 306 303 301 300 298 297 297 296 296 295 293 291 292 292 295 297 299 303 303 303 301 300 301 300 300 299 299 300 301 301 299 296 295 295 294 294 295 296 297 296 295 294 293 294 293 293 293 292 292 292 292 294 294 294 295 294 293 293 293 293 292 290 289
305 304 303 304 304 303 303 303 302 302 302 302 302 303 304 303 303 304 305 305 305 306 306 304 302 300 298 297 296 296 295 294 291 292 292 291 293 295 300 303 303 303 301 300 301 300 299 299 299 300 299 300 297 295 295 295 294 294 294 294 295 295 295 294 293 293 293 292 292 292 292 292 292 293 293 294 293 294 294 293 293 292 291 291 291
304 303 303 303 303 303 302 302 301 302 302 302 302 302 302 303 303 303 303 304 305 304 304 305 303 301 298 296 295 295 294 293 291 292 292 291 291 294 300 304 304 303 303 301 302 300 300 299 298 299 299 300 299 295 294 294 295 295 296 297 296 296 293 292 293 296 295 293 292 292 292 293 292 293 295 295 295 293 293 292 292 292 292 291 291
304 303 303 303 303 302 302 302 301 301 301 301 302 302 302 302 304 304 304 304 303 303 304 304 304 302 300 298 296 294 294 293 291 292 292 291 291 293 302 305 303 302 303 299 301 302 300 299 297 297 296 297 296 295 294 293 293 294 295 296 296 297 296 295 294 294 296 295 294 293 294 295 294 295 296 296 295 293 292 292 292 292 291 291 293
304 303 302 302 303 303 302 301 300 301 302 302 303 302 302 303 303 303 303 303 302 302 302 302 304 303 301 299 296 295 295 292 291 291 291 291 292 296 302 302 303 301 303 301 300 302 299 300 299 297 295 295 296 294 293 292 293 294 294 294 295 296 296 296 296 295 296 296 295 295 295 296 296 296 296 296 296 295 294 293 293 293 293 294 294
303 303 302 302 302 301 300 300 301 302 302 302 302 302 303 303 302 303 303 302 302 302 302 302 302 303 303 299 297 295 295 291 291 291 292 291 293 301 300 299 300 300 301 300 298 301 300 299 299 297 295 295 296 293 293 293 293 293 293 293 294 295 295 297 295 295 296 296 296 296 296 296 295 295 295 295 295 295 296 295 295 293 292 290 289
302 302 302 302 301 301 301 302 302 302 302 302 301 302 302 302 303 304 302 302 302 301 301 300 300 301 302 300 297 296 295 293 291 292 292 291 294 299 298 297 298 299 299 300 299 301 301 300 299 297 296 294 294 291 291 293 293 293 292 292 293 294 294 296 296 295 294 294 293 293 293 293 293 294 293 293 294 295 294 292 291 291 289 288 289
302 302 301 301 302 302 302 302 302 302 302 301 302 303 304 304 303 304 302 302 301 302 301 300 299 299 300 301 300 297 296 294 291 292 292 291 294 297 297 296 296 297 298 299 299 300 299 302 300 297 295 295 293 291 291 293 292 292 292 292 292 293 293 294 295 296 295 295 294 294 294 294 294 294 294 294 294 295 293 290 291 291 288 288 287
301 301 301 302 303 302 302 302 302 302 301 302 303 302 303 303 304 304 304 303 303 302 302 301 300 299 300 301 303 300 297 296 292 291 292 292 294 296 297 296 295 295 296 297 299 298 299 300 299 296 296 295 291 292 291 293 292 292 292 292 292 292 292 293 293 292 293 294 294 295 295 296 297 296 296 295 294 296 295 293 292 290 288 288 288
302 303 303 303 302 303 303 303 302 302 302 303 303 303 304 304 305 304 304 302 301 301 301 301 301 300 300 301 302 302 300 298 296 292 292 292 292 296 297 295 293 294 295 296 296 296 297 297 297 293 292 292 292 291 291 291 291 292 292 292 292 291 293 292 293 294 293 294 293 294 295 295 295 295 295 295 295 296 294 293 292 291 289 288 288
304 303 303 303 303 302 303 303 303 303 303 303 304 304 304 305 306 305 303 303 303 304 303 302 302 302 302 302 301 303 302 300 297 292 292 292 292 293 296 295 295 294 295 295 295 295 295 295 296 295 293 292 292 291 291 291 291 292 293 293 293 292 291 291 293 296 293 293 293 294 294 294 294 294 294 293 294 294 293 292 292 291 290 288 287
304 303 302 302 302 302 303 304 304 304 304 304 303 303 304 304 304 304 302 304 305 305 305 303 302 302 302 303 303 302 301 303 299 293 292 293 292 291 295 296 296 295 294 294 295 295 295 294 295 295 293 292 291 291 291 291 290 294 294 291 290 290 291 293 294 293 293 293 292 292 292 292 292 292 293 293 293 293 292 291 291 291 291 291 289
303 302 302 302 302 303 304 304 304 305 304 304 304 303 304 305 306 305 304 304 304 303 304 304 303 303 303 303 304 302 301 299 295 298 292 293 292 291 291 293 291 296 295 293 294 295 295 295 296 296 292 291 291 291 291 290 292 293 291 290 290 290 292 294 293 292 292 292 292 291 291 292 291 291 292 292 292 292 291 291 292 291 292 292 293
302 302 302 302 303 303 303 304 304 304 304 304 303 303 303 303 303 304 304 303 302 302 301 302 303 302 302 303 302 302 301 300 295 295 296 292 292 291 291 290 290 294 295 295 295 295 294 294 294 292 291 291 291 290 290 291 292 291 290 290 290 292 294 293 292 292 291 291 290 291 291 292 292 291 292 293 292 292 292 291 291 291 292 293 294
302 302 302 302 302 302 303 303 303 303 304 304 303 302 303 304 303 304 304 305 303 302 302 302 303 302 302 301 302 301 301 300 300 296 293 293 292 291 291 290 291 291 294 296 296 295 292 291 291 291 291 291 291 291 292 293 291 290 290 290 294 293 293 292 292 291 290 290 290 290 291 292 292 293 294 294 293 292 291 290 291 291 292 296 298
301 301 301 302 302 302 302 302 303 303 304 303 304 304 303 303 302 302 303 303 304 304 302 300 299 299 301 301 301 301 300 298 297 297 296 295 294 292 292 292 293 293 293 295 292 292 292 292 292 292 293 293 295 294 293 294 291 291 291 293 292 292 292 292 291 290 289 290 290 290 291 292 293 294 294 294 291 289 289 288 288 289 290 292 296
301 301 302 302 302 302 302 301 302 303 303 303 303 303 303 304 304 303 304 303 304 304 300 301 300 299 299 299 299 300 297 296 295 295 296 295 294 294 294 295 294 293 295 295 294 294 293 294 293 291 291 292 292 292 292 293 293 292 292 291 291 291 292 292 291 290 290 290 290 291 292 293 294 293 293 292 290 289 290 289 288 288 288 290 291
301 301 301 301 301 301 301 295 299 301 303 302 302 302 303 304 303 304 303 303 305 301 300 300 301 301 300 298 300 299 296 295 293 293 294 293 293 293 293 294 294 293 294 294 293 293 293 293 294 297 296 296 295 294 293 293 292 291 291 290 290 291 292 293 293 291 291 291 292 292 292 292 292 292 293 292 291 290 290 289 288 287 288 289 288
301 301 301 300 300 300 301 301 301 301 302 303 302 302 305 304 302 297 299 299 298 299 301 299 300 301 301 297 297 298 295 294 293 291 293 290 289 291 292 292 292 292 292 290 290 291 293 294 295 294 294 291 291 292 292 292 291 292 292 290 289 289 290 290 289 290 290 290 290 291 290 291 291 292 292 291 290 290 290 288 289 288 289 289 287
301 300 300 300 300 301 301 301 301 301 302 301 298 298 290 292 297 296 295 289 287 290 292 296 297 299 300 297 296 296 295 296 289 288 289 289 289 288 289 289 288 289 289 288 290 290 291 291 292 291 292 291 290 289 289 290 290 289 290 289 289 288 288 289 288 289 290 290 290 290 290 290 291 292 291 290 290 291 290 288 288 289 287 287 286
300 300 300 300 299 301 300 300 301 301 302 301 299 296 296 294 288 291 293 290 288 287 286 284 283 286 294 299 295 291 291 289 289 289 289 289 289 288 289 288 289 288 288 288 288 288 288 289 289 290 290 291 288 289 289 289 288 288 289 288 288 287 287 287 287 288 288 289 289 290 290 290 290 291 291 291 290 290 290 289 289 288 287 287 286
300 300 300 300 299 301 300 300 302 301 300 302 301 298 296 295 294 288 286 287 286 285 285 285 286 285 285 288 295 297 288 288 289 288 288 289 289 289 288 289 289 289 289 289 287 288 290 289 289 289 290 289 288 288 289 289 288 289 288 288 287 287 287 287 287 288 288 288 289 289 290 290 290 290 291 291 290 290 290 289 288 287 287 287 287
300 300 301 300 300 300 298 299 302 302 300 301 300 298 297 295 294 293 291 286 284 285 285 284 284 285 285 285 284 288 290 289 288 288 288 289 288 289 289 289 289 289 289 288 289 290 289 293 291 291 291 288 290 289 290 290 289 289 289 288 287 288 288 288 288 287 287 288 289 290 290 290 290 290 290 291 290 289 289 289 289 289 288 287 287
301 301 301 300 300 301 299 300 302 303 302 301 300 297 296 296 295 294 293 293 293 289 286 285 286 286 285 285 286 286 285 285 286 287 287 288 288 289 288 288 290 291 290 290 289 290 292 292 292 292 292 291 291 290 289 290 289 289 289 289 289 289 289 289 288 287 287 287 288 289 289 290 290 290 290 291 291 291 290 289 289 288 287 287 286
302 297 292 295 300 302 302 300 301 302 302 301 301 298 298 297 296 294 293 293 293 293 294 293 289 286 289 289 287 285 285 285 286 287 288 289 289 289 289 292 291 293 297 298 296 294 292 293 292 292 292 291 291 291 290 292 290 289 289 289 289 289 288 288 287 287 286 287 287 289 289 289 290 290 290 290 290 290 290 289 289 289 288 288 287
302 301 300 298 300 301 302 302 301 302 302 301 302 300 299 299 297 296 296 295 295 295 295 296 295 290 288 289 289 288 286 286 287 288 288 288 289 289 289 289 290 293 293 295 294 294 293 294 293 293 293 293 293 292 292 291 291 290 290 289 288 288 288 288 287 287 287 286 287 288 289 289 290 290 290 290 290 290 290 290 289 289 289 289 288
302 301 301 300 300 300 302 303 302 302 298 298 300 299 299 300 299 299 298 298 297 298 298 297 297 296 291 290 290 289 288 288 288 288 289 289 288 288 290 291 292 294 293 294 295 294 294 294 294 294 293 293 292 292 292 292 291 291 290 290 290 289 288 287 287 287 287 286 287 287 288 289 289 289 289 289 290 290 290 290 290 289 289 288 288
303 301 301 302 301 301 302 303 302 294 298 299 300 299 299 300 299 298 298 297 297 295 300 298 295 296 293 293 295 293 292 290 289 289 290 289 288 289 291 291 292 294 294 295 295 295 294 295 295 294 293 294 293 293 292 292 291 291 290 290 288 288 289 288 287 287 287 286 287 287 288 288 289 289 289 289 289 289 289 289 290 289 289 289 289
303 295 293 293 296 301 301 300 300 300 300 299 299 299 295 297 297 297 298 300 298 298 297 299 297 297 297 297 296 295 293 293 292 291 290 291 292 293 294 294 296 295 296 296 297 295 296 295 294 294 294 294 293 292 292 291 292 290 290 288 288 288 288 288 287 287 287 287 286 287 287 288 289 289 289 289 289 289 289 289 290 289 289 289 289
301 299 294 292 298 299 298 299 300 299 297 300 299 299 297 297 298 297 297 297 297 296 297 296 296 297 299 298 297 296 294 293 293 293 292 291 292 294 295 295 295 296 296 296 296 296 296 295 295 294 294 293 292 292 292 292 292 289 288 287 286 287 288 287 287 287 287 287 287 287 287 287 288 288 289 289 289 289 289 289 289 289 289 289 289
302 300 293 293 296 300 299 299 299 299 298 297 298 298 299 297 299 296 298 297 296 297 297 297 298 300 300 296 294 293 296 295 294 294 292 292 294 296 296 296 296 296 296 296 296 297 296 295 294 293 293 292 292 292 292 292 290 289 288 287 287 286 287 287 287 287 287 287 287 287 287 287 287 288 287 288 289 289 289 289 289 289 289 289 289
301 298 297 297 296 298 299 299 298 296 297 297 297 299 296 296 297 298 298 295 296 294 294 299 299 299 293 290 291 291 294 296 295 293 295 294 295 296 295 297 298 297 296 296 297 297 295 295 295 293 292 291 290 290 290 290 289 289 288 288 288 286 286 287 287 287 287 287 287 287 287 287 287 287 288 288 288 289 289 288 288 289 289 289 288
299 297 298 298 298 299 298 298 298 298 297 297 296 294 296 298 298 298 296 295 296 295 297 297 297 298 293 289 289 289 294 295 291 293 293 294 294 294 295 296 296 297 298 298 298 297 295 292 292 293 292 291 293 290 289 289 289 289 289 288 288 286 286 286 287 287 287 287 287 287 287 287 287 287 287 287 288 288 288 288 288 288 288 288 288
298 297 297 296 297 297 298 299 298 298 297 295 296 295 296 299 299 298 297 297 297 296 296 297 296 297 296 293 290 291 294 295 295 294 293 293 294 294 296 296 296 297 298 298 297 297 295 293 292 293 295 295 295 296 292 291 290 289 289 289 288 287 287 286 286 287 287 287 287 287 287 287 286 287 287 287 287 287 287 287 288 288 288 288 288
300 298 298 297 298 297 298 298 298 299 295 295 297 298 296 298 298 297 297 298 295 297 296 295 294 295 294 294 294 294 295 296 293 293 293 295 295 295 295 295 296 297 296 295 296 298 295 293 293 291 291 293 293 295 294 294 295 292 290 290 288 287 287 287 287 286 286 286 287 287 287 287 286 286 286 286 287 287 287 287 287 287 287 287 287
299 299 298 298 297 296 296 298 295 298 298 297 297 297 297 298 298 297 296 296 296 297 296 296 295 295 294 296 295 293 296 297 296 296 294 294 295 295 294 294 295 296 294 293 294 297 293 293 291 291 290 291 294 293 293 294 294 295 295 295 292 289 289 290 289 287 287 286 286 287 287 287 286 286 286 286 286 286 286 287 287 287 286 287 287
300 299 299 298 298 296 296 297 297 297 298 297 297 297 297 297 297 296 294 297 297 295 297 297 297 296 296 296 295 296 297 296 296 295 296 296 296 295 293 293 293 293 293 295 293 293 293 292 291 290 291 290 292 295 295 292 294 292 294 294 294 292 289 289 289 288 288 287 286 286 287 287 286 286 287 287 286 286 286 286 286 286 286 286 286
300 298 299 297 298 296 296 297 296 293 297 296 297 296 296 296 297 296 297 296 296 296 296 297 297 297 296 297 297 297 295 296 296 295 295 296 296 295 295 294 293 293 292 292 293 292 291 291 291 291 291 290 290 290 293 294 294 294 294 294 292 289 288 287 289 291 289 286 286 286 286 287 287 286 287 286 285 285 285 286 286 286 286 286 286
299 298 298 298 298 297 296 296 295 296 296 297 297 297 297 297 297 298 298 298 298 297 297 297 297 297 297 298 297 297 297 295 297 297 296 295 297 297 294 294 292 294 293 293 293 293 292 293 292 292 291 291 291 291 292 294 294 293 294 293 287 284 284 285 287 288 286 285 286 287 286 286 287 287 287 286 286 285 285 285 285 286 286 286 286
300 298 298 298 297 298 297 297 298 298 297 298 298 298 297 298 298 297 298 298 298 299 299 298 297 298 297 297 296 297 296 296 296 297 297 297 296 296 295 294 295 293 293 293 293 292 293 291 291 292 291 291 292 291 292 292 292 291 293 290 285 282 283 283 283 284 284 286 286 285 286 286 287 287 286 287 286 285 285 285 285 286 286 286 285
299 300 299 299 298 298 299 299 299 299 299 298 298 298 297 298 298 298 298 298 298 298 298 299 299 298 298 298 296 298 297 298 298 298 298 298 298 297 296 294 293 293 292 292 293 293 293 292 292 292 291 291 291 292 292 292 292 291 291 289 284 283 283 283 285 284 283 284 284 285 285 286 286 287 287 286 286 285 285 286 285 285 286 286 285
Wind_Speed
8 7 6 7 8 7 7 7 7 7 7 6 7 6 5 5 5 4 4 4 3 4 4 5 5 5 6 7 7 6 6 6 5 4 4 4 4 4 5 6 6 5 5 6 5 5 6 6 7 8 8 8 8 8 9 9 9 8 8 8 9 9 9 10 12 14 11 9 10 11 14 15 13 14 16 14 13 13 15 14 13 12 13 11 9
10 9 7 8 9 8 7 6 7 7 7 6 6 6 5 5 5 5 5 4 4 5 5 4 5 7 7 8 7 7 7 7 6 5 5 4 4 4 5 5 5 5 4 6 6 5 5 6 8 9 9 9 9 9 9 8 9 9 8 8 9 9 9 10 11 12 15 12 12 11 12 13 15 14 15 16 16 15 16 15 13 12 12 12 13
11 9 9 9 8 8 8 7 7 7 7 6 7 6 5 5 5 5 5 5 5 5 5 6 7 7 7 7 8 8 8 7 7 6 6 5 5 4 5 4 4 5 5 7 6 6 6 6 9 9 7 7 7 7 6 7 7 8 9 9 10 10 10 10 11 13 15 14 13 13 12 13 13 15 16 14 15 14 15 15 14 14 13 14 13
11 11 10 9 8 8 8 8 8 7 7 6 6 6 6 5 5 5 5 4 6 4 6 7 7 7 8 8 8 8 8 8 7 7 7 6 5 5 5 4 5 6 6 6 6 6 6 6 8 7 7 7 7 6 6 7 7 7 9 9 10 11 10 10 11 11 13 15 14 14 12 13 12 13 14 14 14 14 13 14 15 15 14 14 13
11 12 10 9 9 8 8 7 7 7 7 6 6 6 5 5 5 6 5 6 5 5 6 7 7 8 8 9 9 8 8 8 8 7 6 5 5 4 4 4 4 5 5 6 7 5 7 7 8 7 6 6 5 6 7 8 8 9 9 9 10 9 9 10 11 11 13 15 15 12 12 11 11 12 13 14 14 13 13 13 13 14 14 13 14
11 11 9 10 9 9 8 8 8 8 7 6 6 6 6 5 5 5 6 6 6 6 7 7 8 9 9 9 9 8 8 8 9 9 8 7 7 3 4 3 4 5 5 4 6 6 6 6 6 5 4 5 6 6 7 9 9 10 10 10 10 10 10 10 10 11 13 13 13 14 12 13 12 11 13 13 14 15 14 13 11 11 12 14 13
11 10 10 9 9 9 8 7 7 7 6 6 5 6 6 5 6 6 5 6 6 6 7 8 7 8 9 9 9 8 8 9 9 9 8 9 8 7 4 4 4 4 4 5 6 5 4 5 3 4 5 5 7 8 7 8 8 10 11 10 10 9 10 10 12 12 12 13 13 13 13 11 12 13 13 13 14 13 15 15 13 10 11 12 14
11 11 10 9 9 9 8 7 7 7 6 6 6 6 6 6 6 6 6 6 6 7 7 7 7 8 8 8 8 7 8 8 8 8 8 8 7 8 4 4 4 4 3 3 3 3 4 4 3 5 5 6 6 5 7 9 9 10 9 9 9 10 11 11 11 12 12 12 12 13 12 13 12 11 11 12 13 12 10 12 16 15 13 11 11
11 11 10 9 9 8 7 7 6 6 7 6 6 6 6 6 6 6 6 5 5 6 7 8 8 8 9 8 9 8 7 7 6 7 7 8 8 8 8 4 4 3 3 3 2 3 3 3 3 5 7 11 8 10 12 10 9 9 9 9 10 10 10 10 10 11 12 12 13 12 13 13 12 14 14 12 13 15 15 14 14 14 14 14 13
11 11 10 10 9 9 8 7 7 7 7 7 7 6 6 6 6 7 7 6 6 6 7 8 9 9 8 8 7 7 6 5 9 11 8 6 6 6 7 4 3 3 3 3 2 3 2 3 6 13 12 12 9 14 14 13 14 10 10 10 10 10 9 10 10 11 12 13 13 14 14 13 14 14 14 14 14 15 15 14 16 16 15 16 15
11 11 11 10 9 9 8 8 8 8 7 7 7 7 7 6 7 7 7 6 5 5 5 7 8 8 8 8 7 7 6 7 13 13 13 12 6 6 6 3 4 3 3 5 3 5 5 6 5 7 8 8 8 13 14 14 15 16 16 16 12 8 9 10 10 11 11 11 13 13 13 16 16 14 15 17 15 15 16 16 18 17 16 16 18
11 11 10 10 10 10 9 9 9 8 7 8 8 7 6 6 6 6 6 6 5 5 5 6 7 7 7 8 7 7 6 10 13 14 14 16 11 6 6 3 3 2 3 5 2 4 5 4 4 4 4 7 6 8 11 14 16 17 17 16 12 11 9 7 9 11 12 13 13 13 13 14 14 14 14 14 16 15 17 17 16 15 16 17 16
11 11 11 10 10 9 9 9 9 8 8 8 7 7 6 7 7 6 7 6 5 6 5 5 6 7 7 7 7 7 7 10 13 14 14 14 14 10 5 3 2 2 2 4 3 4 2 3 3 4 4 11 8 9 10 11 14 16 16 13 12 13 12 11 8 8 10 12 13 14 14 14 16 13 14 17 16 18 17 15 15 15 15 15 18
11 11 11 10 10 10 10 9 9 9 8 7 6 6 6 6 5 5 5 6 6 6 5 5 5 6 7 6 6 6 6 9 12 14 14 16 15 12 5 3 3 3 2 5 5 2 4 3 3 3 4 5 5 10 10 10 11 10 9 9 10 10 10 9 10 12 11 10 11 13 15 14 15 16 16 16 18 19 18 19 19 17 19 18 18
12 11 11 11 10 9 10 10 9 9 8 7 6 7 6 5 6 4 4 5 5 5 5 4 4 5 7 6 5 4 5 9 11 14 14 17 17 12 3 6 3 4 2 3 6 1 4 3 3 3 4 5 6 11 11 9 10 9 10 10 10 10 9 8 9 8 10 10 10 11 14 14 14 16 16 14 15 17 18 21 21 20 20 20 18
12 11 11 10 10 10 10 10 9 8 8 7 7 6 5 5 5 5 5 5 5 5 5 4 4 4 5 7 5 4 4 9 11 13 14 16 16 8 5 5 5 5 5 3 7 2 3 3 2 3 4 4 9 15 14 10 10 11 11 11 11 11 9 10 12 10 10 12 10 11 12 15 18 18 18 17 15 14 16 16 16 15 16 15 15
12 11 11 11 11 11 10 10 9 8 8 8 8 6 5 5 4 4 5 5 5 5 5 5 4 3 3 5 5 3 3 6 9 11 13 15 12 7 5 6 6 6 8 4 5 2 3 3 3 3 4 7 12 15 16 15 10 11 12 11 11 11 11 10 12 13 14 16 15 15 17 20 21 22 24 26 21 19 17 17 15 13 15 15 15
13 12 11 11 10 10 10 10 9 9 8 8 7 5 4 4 4 4 4 4 5 5 6 6 5 4 3 3 4 4 2 3 6 8 11 13 11 7 5 6 6 7 7 9 5 3 3 6 6 3 8 10 14 15 18 14 11 12 12 12 13 12 12 12 11 10 14 16 16 17 19 21 22 23 23 23 24 21 17 17 16 14 15 13 16
13 12 12 11 10 10 10 10 9 8 8 8 6 6 5 4 3 3 4 4 4 5 5 5 5 4 3 2 2 4 4 2 4 6 8 9 9 6 5 6 6 7 7 8 6 4 1 3 4 10 10 13 16 16 18 16 12 11 12 11 12 12 13 14 14 14 12 11 12 15 16 19 18 17 17 24 23 21 16 17 16 14 17 15 13
13 11 11 11 10 9 8 9 8 8 9 7 6 5 4 4 4 4 5 4 4 5 4 3 4 5 4 3 2 2 3 3 2 3 6 7 8 6 4 5 6 7 7 7 7 5 4 5 5 9 14 16 17 18 19 18 13 12 10 10 10 14 14 14 15 14 12 11 14 15 17 17 17 16 16 16 16 16 16 16 16 15 16 17 14
12 12 11 11 11 10 9 8 8 8 7 6 5 5 4 3 3 3 4 4 4 3 4 4 4 4 4 5 4 3 2 4 3 3 5 6 6 5 4 4 5 6 6 7 7 6 5 6 5 10 15 16 18 20 20 20 17 10 10 9 11 16 17 12 15 16 11 13 14 15 15 16 16 16 16 16 16 16 16 16 17 15 15 16 17
12 12 12 12 11 10 9 8 8 7 7 6 5 5 4 4 3 4 4 3 3 2 2 3 3 4 4 4 4 5 3 4 4 2 4 5 5 5 3 4 5 5 6 6 7 6 6 6 6 11 16 17 20 21 21 19 19 9 10 16 21 21 17 12 9 11 12 13 14 15 16 16 17 17 18 17 16 18 18 18 17 16 14 13 15
13 12 12 11 11 10 9 9 7 6 6 6 6 5 4 3 3 4 4 4 3 3 2 2 3 3 3 4 3 6 5 4 1 3 3 4 5 6 7 6 8 5 5 7 6 6 5 6 8 15 18 20 20 21 20 19 12 9 17 18 19 22 16 8 11 12 13 14 14 15 16 17 18 18 18 17 17 18 18 17 18 17 15 14 16
12 12 10 11 11 10 10 9 7 7 7 6 6 5 4 4 4 4 4 5 5 5 4 4 3 2 2 2 3 6 6 4 2 3 4 1 4 6 11 11 8 4 6 6 4 6 7 8 11 17 19 19 21 20 17 13 11 17 17 18 18 16 10 10 11 12 13 14 14 15 17 17 18 18 18 17 17 19 19 20 19 19 17 16 15
11 11 12 11 11 11 9 8 8 7 7 6 6 6 5 5 4 3 3 3 3 3 3 2 1 2 2 2 1 3 6 6 4 4 5 7 6 8 11 10 10 11 7 4 4 6 10 14 17 18 18 20 17 12 11 12 16 16 17 16 15 10 10 10 12 12 13 14 15 15 15 17 17 17 18 18 19 18 18 20 22 20 20 20 5
12 13 12 11 11 12 10 10 9 8 7 6 5 4 4 4 4 4 4 3 1 1 1 2 3 2 1 2 1 3 4 5 4 4 5 6 6 9 11 10 11 11 10 5 9 13 15 17 19 17 16 12 6 7 7 10 15 16 16 15 10 10 10 11 11 12 12 14 15 15 15 16 18 17 17 16 15 16 17 19 21 20 18 16 12
12 11 12 12 11 11 10 8 8 8 6 5 6 6 5 5 3 3 3 3 2 1 3 2 2 2 2 1 0 2 5 5 4 3 4 4 4 5 6 6 8 8 6 6 8 9 14 14 14 17 12 11 10 10 10 12 10 10 9 10 10 10 10 10 10 12 12 13 14 14 14 14 15 16 17 17 16 15 16 15 15 18 15 15 13
12 12 13 11 10 10 9 10 10 6 6 6 5 5 5 3 3 1 2 3 0 3 4 2 2 1 1 2 1 1 4 5 4 3 3 4 4 4 4 5 5 5 6 6 8 10 10 12 13 5 6 5 6 6 7 8 9 9 9 10 11 11 13 14 13 11 11 13 13 13 13 14 16 16 16 16 16 15 15 16 14 16 14 14 16
12 13 12 11 10 9 8 9 7 7 6 5 4 4 0 3 5 7 5 4 5 4 4 5 4 3 2 3 2 2 3 3 2 2 0 1 2 3 5 4 5 6 7 8 8 9 9 9 7 6 5 5 6 7 8 9 8 9 10 10 11 11 10 9 12 12 12 13 14 15 15 14 15 15 16 16 17 16 16 17 17 15 15 15 16
11 12 10 10 9 9 8 8 7 7 6 6 8 5 9 13 8 7 5 5 10 9 7 4 2 2 2 4 3 3 2 2 3 1 3 4 6 8 9 10 9 8 9 12 6 6 7 7 6 5 6 6 6 5 7 8 7 8 9 11 11 11 11 11 12 12 12 13 13 14 15 13 14 15 15 16 16 16 17 17 16 16 16 17 16
10 10 10 9 10 9 9 8 8 8 7 7 8 8 6 8 13 12 10 7 7 8 9 8 6 4 3 2 3 7 7 4 2 3 5 7 8 9 9 10 11 12 7 6 6 5 6 6 4 4 4 5 5 5 6 6 6 7 8 9 10 10 10 11 12 11 11 13 13 13 14 13 13 14 15 15 16 15 15 15 15 16 16 16 16
10 9 9 9 10 9 9 8 7 8 7 7 9 7 7 5 4 7 8 7 5 4 4 3 4 4 3 2 2 2 3 4 4 5 7 8 9 10 11 12 13 13 10 2 3 7 5 4 4 4 5 5 5 6 6 6 6 7 7 9 9 8 10 11 12 11 11 13 13 12 14 13 12 13 13 14 14 14 14 15 15 16 15 15 15
11 10 9 10 10 8 9 8 6 7 8 6 7 7 7 7 6 4 2 5 4 2 2 1 1 1 1 2 3 3 3 4 5 7 8 9 10 10 11 13 14 15 9 4 3 5 4 4 4 4 5 5 5 6 6 6 7 6 6 8 9 9 11 12 12 12 11 13 12 12 13 13 12 12 12 13 14 15 15 15 15 14 14 15 15
11 9 9 10 10 7 8 7 6 6 7 7 7 7 7 6 7 7 6 4 1 1 4 6 6 5 6 6 6 7 7 7 8 8 9 10 11 10 8 10 15 19 8 4 3 3 4 4 4 4 4 5 5 5 5 6 6 7 6 8 9 9 11 12 11 12 11 12 11 12 12 13 12 11 12 13 13 12 14 14 14 15 14 14 14
10 9 14 12 9 7 6 8 6 5 6 7 7 8 8 9 9 9 8 8 7 7 7 6 8 11 10 8 9 9 8 9 9 9 10 11 11 8 9 8 7 8 1 3 1 3 4 4 4 4 4 4 5 5 5 6 6 6 6 8 9 9 10 10 10 11 11 11 12 12 12 13 13 11 11 12 12 14 14 14 14 14 14 13 13
10 8 10 12 8 7 4 7 7 6 5 6 5 5 6 8 10 9 8 9 8 8 7 7 8 11 14 10 8 8 9 10 10 10 11 11 8 5 4 5 5 6 2 3 2 3 4 4 3 4 4 4 4 4 4 5 5 6 7 7 7 8 10 9 9 10 11 10 11 13 12 12 12 12 10 11 12 12 12 12 12 13 14 12 11
9 9 9 9 9 7 5 6 7 6 5 5 5 5 4 3 6 8 8 9 9 8 8 7 5 5 4 7 9 9 12 12 13 10 9 10 7 2 5 6 6 7 2 3 2 3 3 4 3 3 4 4 4 4 4 5 4 6 6 6 7 8 8 8 8 8 10 10 10 11 11 11 11 12 11 11 12 11 11 11 12 13 13 16 13
8 8 9 9 8 9 6 4 7 7 6 6 6 6 4 4 4 3 3 4 5 4 2 9 8 7 9 10 11 8 9 10 7 8 9 9 6 5 7 7 8 7 2 2 3 3 3 3 3 3 4 3 4 4 4 5 4 4 5 6 5 5 10 9 9 9 9 10 10 11 11 11 11 11 11 10 11 11 11 10 10 11 12 14 13
4 11 13 12 7 8 7 5 6 6 5 4 5 5 6 4 5 4 4 3 4 4 3 4 8 8 8 6 6 8 6 4 4 6 6 5 6 6 7 7 4 3 2 1 2 2 2 3 3 3 3 3 4 4 4 5 5 4 5 4 4 5 7 7 9 9 8 9 9 10 10 11 10 10 10 10 9 10 10 10 10 10 11 11 12
6 7 11 13 4 4 7 6 5 6 5 5 3 3 4 4 4 4 4 3 4 4 4 3 4 4 4 10 7 7 8 7 7 6 6 6 7 8 4 3 3 3 2 2 2 2 1 2 2 3 3 3 4 4 4 4 5 4 3 4 4 5 6 6 7 8 9 8 8 9 9 10 10 9 10 11 10 9 10 10 9 9 9 10 10
6 8 10 11 8 4 4 5 5 6 5 5 3 4 4 5 4 4 4 4 3 3 4 4 4 4 2 11 14 12 8 7 4 2 4 4 3 3 3 3 3 2 2 2 2 0 1 1 1 2 3 3 3 4 3 4 4 4 4 4 2 4 4 5 6 7 8 8 9 8 8 9 10 8 11 11 12 10 8 8 8 8 8 8 9
5 9 10 9 9 5 3 4 5 7 5 7 6 4 3 4 5 3 3 3 4 4 3 3 3 2 9 16 15 14 5 2 2 3 3 4 5 4 3 3 2 3 4 3 2 1 1 1 0 0 1 2 3 3 3 4 4 5 4 4 1 3 4 5 5 6 6 7 8 9 8 8 9 8 10 10 9 10 9 8 7 7 8 7 7
5 9 9 8 7 5 3 4 4 6 5 6 5 5 4 4 5 5 4 4 3 3 3 3 3 2 7 9 12 11 5 3 3 4 5 3 4 4 4 3 5 4 3 3 2 2 2 0 0 0 1 2 3 3 4 4 4 5 5 4 1 3 3 4 4 5 5 6 8 9 8 7 8 7 8 9 9 9 9 10 8 6 6 7 6
8 9 8 8 7 6 3 4 4 4 6 6 7 6 5 3 4 5 6 5 5 4 3 3 3 2 5 3 3 4 3 4 4 4 6 6 6 5 6 5 2 2 3 2 1 1 1 1 1 1 1 1 2 3 3 4 4 5 5 5 1 3 2 3 4 5 5 5 7 7 7 7 7 7 7 9 9 9 9 10 10 9 6 5 6
7 9 7 8 7 7 7 5 5 4 6 7 5 5 6 5 4 4 3 4 5 6 6 5 4 4 3 6 6 6 5 6 5 5 5 5 6 6 4 4 4 5 4 3 3 2 1 2 1 1 1 1 1 2 4 4 4 5 5 5 0 2 1 1 2 3 4 4 5 6 7 6 6 7 7 8 8 8 8 8 8 10 9 6 5
6 8 9 8 8 8 7 7 5 5 5 4 5 5 5 5 5 5 4 4 4 3 4 5 5 6 5 7 7 7 7 6 5 6 7 6 5 6 5 4 4 3 3 2 2 2 2 2 2 2 2 3 3 4 4 3 4 5 5 5 1 4 2 0 0 2 3 4 5 5 6 6 5 6 8 7 7 7 7 8 8 9 9 7 6
7 7 9 9 9 8 8 7 6 6 7 7 6 6 6 7 6 6 5 6 5 5 5 4 4 5 7 7 7 7 8 8 7 6 5 5 4 5 4 4 4 3 3 2 2 2 3 4 4 4 5 5 5 4 3 3 5 5 4 5 0 3 2 0 1 1 2 3 4 5 5 5 5 5 7 7 6 7 8 8 8 8 10 8 7
5 6 6 8 8 8 8 8 8 7 6 7 7 7 6 6 6 7 6 7 7 6 5 4 5 5 5 5 6 6 7 7 6 6 6 6 5 5 5 5 5 5 5 4 4 4 3 4 4 4 4 4 4 4 4 4 4 5 5 3 2 3 2 2 0 0 1 2 3 4 4 6 5 5 6 6 5 6 7 8 8 8 8 9 6
7 7 6 7 8 8 8 8 8 8 8 6 6 6 6 6 6 5 6 6 6 7 8 7 7 6 5 5 4 4 4 5 5 5 6 6 5 4 5 5 6 6 6 6 6 6 6 5 5 6 5 5 5 5 5 5 5 4 4 2 4 6 7 4 2 0 1 2 3 3 4 4 5 5 5 6 6 5 5 7 7 8 8 8 6
7 7 6 7 7 7 8 8 7 7 7 8 7 6 6 6 6 6 6 5 5 5 5 6 6 7 7 7 6 6 6 5 5 4 5 6 6 5 5 6 6 6 6 7 6 6 5 5 5 5 5 5 5 5 5 5 6 5 6 3 8 8 8 7 5 4 2 1 1 2 4 4 5 5 5 5 5 5 5 6 7 7 7 8 6
4 7 7 6 7 7 6 6 7 8 7 7 7 7 6 6 6 6 6 6 6 6 5 5 5 5 5 6 6 5 6 6 6 6 6 6 6 6 6 5 5 5 5 6 6 6 6 6 6 6 6 6 6 6 5 5 5 5 8 9 10 9 9 6 4 6 7 4 2 2 3 4 5 6 6 5 4 4 5 6 6 6 7 7 6
Wind_Direction
128 128 133 118 111 113 110 102 100 98 96 92 90 86 86 85 83 84 83 84 79 63 64 67 55 49 53 45 42 37 42 32 28 28 22 37 38 23 31 28 32 29 23 29 36 22 19 20 31 34 23 22 18 7 5 358 350 343 343 338 332 332 328 323 313 310 308 315 315 318 320 319 323 330 323 322 322 325 322 315 312 309 307 302 296
133 133 117 112 116 117 115 113 107 105 102 103 99 97 94 94 92 82 78 73 70 65 64 58 64 61 51 46 42 37 31 33 23 26 17 24 36 32 33 25 29 32 21 33 30 19 26 23 35 31 27 20 17 6 357 353 344 340 339 333 327 323 324 318 316 313 313 321 319 320 318 331 322 328 323 326 327 323 320 319 316 315 315 317 314
131 125 121 121 119 114 113 111 109 103 102 98 98 99 97 100 102 101 88 72 60 69 69 58 49 57 60 51 42 36 32 26 19 17 16 12 25 27 34 24 28 23 30 40 27 16 26 27 43 35 20 15 13 356 350 344 335 334 331 328 324 322 322 325 321 317 317 317 320 321 327 327 323 322 324 322 320 320 318 319 322 321 314 308 303
131 127 126 123 122 119 112 109 106 106 103 102 102 102 100 87 84 82 83 83 80 68 67 63 57 52 52 49 44 37 30 25 21 14 16 4 14 28 26 22 26 28 28 41 32 25 16 27 44 30 17 15 360 345 340 335 337 333 329 327 325 327 327 329 326 316 318 317 323 322 323 319 317 318 318 314 318 320 321 319 315 311 308 305 310
126 129 127 123 120 117 113 109 108 107 105 104 98 95 88 89 90 89 81 76 72 68 71 75 65 56 50 44 40 37 30 26 21 11 11 0 4 28 25 21 39 29 30 35 32 29 20 38 44 22 13 359 340 343 337 340 344 333 327 329 329 330 330 326 323 322 319 317 317 315 315 312 313 313 317 318 318 318 316 313 313 313 316 327 325
130 127 125 125 120 115 114 113 111 109 106 103 103 98 97 92 85 83 86 89 82 75 67 59 63 60 53 46 40 35 33 29 22 10 1 353 339 19 25 12 43 34 39 34 44 22 33 21 48 21 351 346 336 341 360 354 339 331 330 333 334 332 329 323 323 322 319 314 316 316 318 319 319 317 319 318 317 315 313 311 309 312 318 315 312
132 129 127 124 124 121 118 116 112 108 103 101 97 95 93 89 83 77 78 83 87 85 78 73 71 64 57 49 42 37 36 33 23 7 358 350 341 341 32 11 39 47 24 37 50 27 27 28 33 4 346 338 355 15 3 344 340 337 337 335 334 328 323 323 324 321 320 318 317 316 316 316 316 315 318 315 310 311 313 315 312 313 306 307 308
133 129 128 125 121 116 115 117 113 109 106 101 99 100 95 87 77 72 69 67 70 79 86 89 82 70 61 55 45 40 37 33 20 6 354 346 345 326 13 12 34 41 30 39 43 28 30 19 12 354 0 4 39 12 3 354 349 338 336 330 324 321 322 322 322 322 321 321 318 319 318 316 315 308 308 313 312 310 313 312 310 312 309 304 302
133 130 126 124 122 120 115 111 114 112 107 97 91 83 82 84 93 92 84 71 61 71 79 76 74 71 64 57 51 42 39 25 21 1 345 346 341 337 335 10 20 39 16 23 31 54 36 24 343 359 23 43 61 24 10 2 344 337 331 323 319 319 318 321 324 324 323 320 320 320 317 315 315 316 320 320 319 317 316 312 303 305 307 306 302
133 129 128 124 125 125 124 123 116 114 114 110 103 96 89 85 83 81 76 76 71 64 67 75 75 67 58 53 54 48 34 29 359 7 8 353 330 331 319 341 2 28 27 337 20 52 41 24 12 5 33 5 42 21 1 348 342 335 321 316 314 313 315 321 325 327 325 326 325 324 320 317 317 319 316 316 315 315 315 317 311 311 309 302 296
132 131 130 133 130 130 128 123 121 111 104 106 107 99 92 87 81 77 75 68 69 80 86 86 79 71 62 52 47 46 34 11 0 6 357 3 355 329 315 329 357 10 19 336 33 7 29 39 24 353 15 352 30 14 355 345 340 334 319 308 302 298 316 324 324 325 325 320 324 320 316 313 314 316 317 317 315 316 313 310 306 304 303 303 300
133 134 134 134 136 132 128 125 118 118 118 109 103 98 95 92 90 91 90 89 85 79 74 86 90 82 70 57 45 39 32 12 4 3 359 355 356 336 306 326 358 4 17 333 22 39 35 12 18 343 10 355 29 7 349 341 337 330 316 306 307 312 312 315 325 332 334 327 321 319 314 313 311 315 310 311 309 303 304 300 298 297 294 293 290
137 137 141 139 135 132 129 126 126 121 107 101 99 109 114 108 100 93 90 90 83 76 70 70 93 97 83 64 47 32 25 8 2 4 359 355 349 341 309 305 335 26 355 340 352 86 59 22 359 352 13 353 17 359 347 339 336 325 314 323 324 326 333 330 334 331 325 319 314 311 311 309 307 299 300 299 301 302 302 300 297 294 288 282 284
139 141 141 137 135 136 134 129 120 114 116 123 133 128 115 109 113 108 107 99 92 83 73 72 84 93 89 78 59 38 25 359 5 3 1 356 348 343 275 319 21 315 19 10 313 59 70 32 5 358 10 352 15 352 341 338 332 324 324 327 321 320 323 323 322 319 317 312 307 306 307 306 302 300 297 300 303 303 302 297 301 293 291 282 282
144 142 137 139 140 133 127 124 128 136 142 141 131 120 121 127 116 110 102 94 89 91 87 78 72 91 97 89 75 49 23 3 7 6 4 1 350 335 346 348 358 341 23 13 328 31 74 29 10 14 10 356 359 342 338 333 327 320 321 322 317 311 313 317 319 322 320 311 305 300 303 306 301 300 296 290 286 290 291 291 289 288 285 283 273
141 140 142 142 136 134 136 141 146 143 134 127 123 121 115 109 111 115 109 102 99 98 93 77 68 77 98 98 90 62 30 10 7 10 7 4 353 335 14 350 3 328 327 39 326 33 49 32 21 26 8 356 344 337 331 332 325 322 318 316 312 306 308 315 305 301 299 297 295 304 312 307 300 297 295 294 292 284 283 282 283 281 279 277 274
145 146 144 140 142 147 148 145 138 134 135 131 126 125 126 123 118 118 113 115 110 101 95 82 68 58 73 107 103 83 59 11 14 11 7 5 360 336 10 5 351 345 334 353 341 25 61 27 32 40 359 353 337 333 328 335 326 323 319 314 312 305 311 321 313 302 296 287 284 299 306 304 301 297 294 291 290 292 296 294 292 291 282 280 277
147 146 146 150 152 146 143 142 140 137 138 134 131 130 125 120 121 122 119 126 123 124 116 110 98 80 69 72 99 114 93 41 34 21 9 4 358 343 357 10 357 343 343 325 332 12 108 53 53 36 4 342 332 329 327 330 327 320 317 315 312 308 315 322 318 313 302 289 298 315 318 315 310 305 300 297 297 298 301 295 297 293 281 276 278
151 154 153 152 145 143 144 142 139 138 132 128 132 133 130 126 121 116 118 123 130 131 126 127 130 127 117 119 115 123 122 101 42 36 24 12 5 344 356 15 356 347 336 322 317 1 13 146 62 25 355 330 327 326 323 324 321 315 315 312 308 311 321 319 320 315 312 307 320 327 321 317 315 310 306 304 301 301 299 295 296 289 284 282 272
155 150 146 144 144 142 139 140 137 133 131 133 135 129 135 148 163 158 160 149 136 123 129 126 140 146 158 155 145 120 127 110 88 55 41 20 14 353 347 11 358 343 332 324 324 344 352 347 354 1 335 325 323 322 320 317 315 312 312 310 309 316 316 316 310 311 304 318 326 323 317 315 313 310 309 308 306 304 301 295 292 285 280 278 269
148 144 146 144 144 142 138 138 131 130 135 134 128 130 130 124 117 98 78 74 77 92 131 150 147 156 164 172 170 162 114 132 128 84 50 29 12 19 337 356 346 337 327 327 331 328 344 350 339 327 320 319 320 320 316 313 311 312 305 306 313 308 309 310 310 307 319 329 324 322 320 318 315 315 315 316 314 312 307 300 292 283 270 267 264
142 145 148 147 143 139 137 131 131 134 134 133 140 126 127 136 131 125 108 110 136 164 178 157 159 164 168 185 184 153 124 94 145 130 62 29 357 354 343 331 319 315 319 334 318 318 347 337 326 309 313 320 317 315 312 309 311 307 305 314 315 315 314 302 307 328 333 329 327 324 323 322 322 322 322 322 320 314 308 303 298 287 271 254 249
146 148 147 143 137 137 134 135 135 137 136 140 133 132 145 152 141 116 133 157 157 161 161 188 169 172 179 172 160 135 144 101 98 158 129 19 358 350 339 329 319 304 320 319 310 333 339 317 313 313 316 315 311 309 306 307 310 317 320 318 318 316 311 323 334 335 334 331 328 327 325 326 327 326 323 323 321 319 313 308 307 300 281 262 241
147 145 141 137 137 137 139 140 137 135 143 142 136 140 143 138 151 161 185 184 175 182 170 182 172 154 153 132 136 130 148 141 175 152 129 2 9 0 347 337 336 308 316 298 338 338 322 317 311 308 308 307 308 303 298 313 330 326 321 319 320 317 321 333 341 340 334 331 331 330 330 328 328 328 329 327 324 323 321 321 324 317 307 285 244
146 141 141 142 138 144 145 143 143 144 147 148 151 158 155 174 166 164 196 188 163 163 149 141 134 126 127 116 126 119 135 152 163 116 95 17 20 10 345 340 343 344 331 324 340 327 316 310 309 308 307 305 298 308 328 335 333 326 324 324 328 330 330 341 340 340 337 336 333 329 330 333 330 327 328 328 327 326 328 329 331 334 336 340 317
145 146 147 145 146 150 149 147 148 147 153 158 157 151 165 190 158 183 184 153 166 124 99 117 132 111 138 110 100 115 112 87 64 38 21 10 0 355 342 346 344 335 325 319 339 331 327 319 309 304 306 300 327 346 338 338 330 330 331 334 341 336 340 339 340 342 340 335 333 332 331 332 334 331 328 328 334 334 335 330 336 345 347 349 358
147 148 144 149 152 154 149 151 147 152 161 160 161 168 173 202 171 161 167 143 130 141 138 164 124 129 112 97 305 102 88 74 53 33 18 3 351 341 340 335 333 332 334 337 340 333 322 314 308 295 279 311 344 343 341 335 334 338 340 343 341 337 336 339 343 343 340 336 332 332 333 333 328 334 341 342 341 339 340 336 338 346 349 352 4
151 151 152 154 155 152 152 143 145 157 171 166 170 161 193 168 161 124 39 67 110 161 147 113 78 52 95 79 16 75 91 80 58 29 7 358 336 327 328 323 325 327 321 336 334 320 311 308 299 315 348 339 344 345 347 340 337 340 342 346 342 336 337 339 345 344 342 336 330 329 333 337 342 343 342 344 344 343 344 347 343 335 354 359 17
154 152 154 156 154 153 146 149 152 160 170 164 81 44 353 212 118 86 66 60 74 32 38 81 51 13 23 66 32 28 54 72 62 113 173 252 275 305 314 313 313 306 307 336 327 311 310 312 308 330 342 349 351 345 344 342 340 342 344 347 342 340 342 350 350 344 341 338 335 336 338 340 342 346 345 347 351 348 349 349 354 355 359 15 19
155 155 159 158 149 151 146 159 161 162 173 131 110 81 44 50 81 106 89 71 77 71 76 90 75 6 14 77 53 51 48 83 143 194 266 262 253 250 258 271 276 273 296 313 296 293 302 306 302 333 334 352 348 345 341 339 342 342 344 347 343 342 343 350 349 342 341 336 334 335 340 339 347 351 351 351 348 352 353 355 355 358 8 9 13
157 158 160 156 154 154 150 167 168 162 177 146 121 116 103 46 37 66 106 125 112 103 101 116 99 83 88 107 96 110 131 152 234 279 297 292 294 292 295 294 299 300 319 343 329 310 308 291 317 334 339 346 348 349 339 338 342 344 345 346 343 342 345 349 346 343 343 337 336 338 340 342 350 353 355 355 352 351 356 359 0 6 9 8 13
158 160 160 151 153 156 155 172 177 160 172 172 139 145 130 121 91 33 41 58 58 77 92 105 108 118 103 103 120 135 140 181 218 274 286 292 293 296 297 301 300 300 306 170 275 295 282 311 331 338 344 347 341 351 340 341 346 348 350 345 343 344 349 348 341 345 343 339 337 339 342 341 349 355 358 356 357 355 358 1 5 6 6 10 13
159 163 160 150 159 160 156 170 189 159 168 174 149 160 158 154 146 149 68 58 47 5 339 310 201 184 225 225 201 187 211 259 278 279 281 286 292 293 304 304 299 292 309 300 249 279 306 327 337 346 348 348 349 350 344 344 351 348 355 348 343 347 349 344 338 347 345 340 337 340 342 342 346 352 360 359 2 2 359 4 5 7 8 11 13
161 166 157 152 164 169 156 166 186 173 165 172 162 164 163 161 163 158 159 170 188 270 238 239 230 238 243 232 226 233 242 249 255 265 274 277 284 298 326 305 298 293 259 224 258 272 324 324 341 348 345 347 349 345 346 344 354 350 351 349 345 346 346 343 345 347 347 342 341 339 342 343 346 352 357 1 3 4 5 5 6 9 11 12 12
162 162 147 149 168 171 162 159 181 188 167 179 171 168 169 172 161 164 174 176 186 192 198 215 221 213 216 220 230 234 240 243 248 250 260 270 279 321 326 312 320 314 122 208 250 1 323 332 348 347 343 352 351 346 347 345 355 353 352 349 347 346 347 346 344 348 347 343 341 341 340 343 348 350 356 1 2 6 8 7 9 11 11 11 13
159 146 140 145 154 173 190 160 176 188 167 174 177 173 183 176 156 173 180 180 183 191 195 198 199 212 217 232 233 228 235 239 243 247 251 262 280 9 322 302 305 295 332 344 7 339 326 332 347 347 346 354 352 345 350 341 356 355 352 349 349 349 348 344 344 347 345 342 341 339 339 344 346 351 353 1 4 7 9 8 9 10 12 14 15
153 148 143 147 157 180 201 168 171 181 160 160 167 181 197 181 156 176 185 177 187 196 192 177 170 170 181 233 234 239 239 244 245 254 268 275 288 287 261 269 272 280 331 337 353 334 324 343 341 352 345 352 355 342 346 341 349 359 346 347 349 353 347 341 344 347 344 343 342 342 342 341 343 351 351 358 3 5 8 11 10 11 14 14 14
149 155 154 165 167 171 195 177 158 150 151 160 179 181 193 168 170 187 198 196 182 202 197 158 177 174 196 222 199 206 233 241 258 284 273 272 270 247 247 249 254 263 309 332 330 323 327 334 347 355 339 352 350 338 344 338 344 356 344 341 349 352 345 343 347 350 347 344 344 343 342 342 342 349 351 352 360 3 4 10 15 13 13 16 20
182 154 160 168 174 161 174 185 153 162 165 182 182 179 173 176 164 187 216 196 188 165 210 168 175 192 205 189 168 202 206 231 219 235 238 233 231 237 233 233 244 276 270 275 295 297 349 330 340 353 337 347 351 336 341 334 339 342 336 341 345 353 351 351 349 346 349 348 343 342 340 343 341 348 350 350 352 360 1 3 14 19 18 19 21
191 149 154 159 173 159 161 179 157 165 154 178 195 190 164 179 172 184 200 214 197 179 189 214 240 245 189 156 174 165 194 212 222 223 223 224 223 223 219 242 251 258 285 285 277 291 339 318 337 352 340 340 346 330 332 334 327 325 324 336 354 359 350 351 350 345 344 344 343 340 340 343 340 343 350 352 350 351 358 2 6 18 23 22 22
184 148 150 159 174 186 170 169 150 164 161 174 213 202 187 171 201 189 197 205 214 194 200 205 212 217 133 151 171 174 188 205 219 258 273 278 254 229 223 243 247 253 254 261 263 311 311 290 330 343 333 337 318 317 323 325 318 316 318 320 5 11 352 352 352 345 341 343 343 339 338 342 342 348 355 347 346 349 354 358 4 12 19 25 23
162 144 156 161 165 190 176 180 153 164 175 172 205 213 187 173 186 219 208 216 196 205 201 212 220 194 149 151 163 174 176 196 199 237 265 268 262 255 230 233 226 225 224 229 230 238 259 268 85 346 307 305 307 301 317 309 309 308 309 314 13 25 7 357 351 342 341 345 340 337 334 343 345 346 351 345 346 348 351 355 359 7 15 20 26
146 148 154 161 165 186 181 183 169 167 183 174 192 206 214 188 187 192 200 210 224 218 205 217 245 166 163 186 175 168 186 191 196 213 232 255 268 270 257 241 228 224 226 224 185 195 217 204 150 199 260 299 308 312 309 298 296 305 305 306 17 52 23 1 347 345 340 345 343 334 331 344 348 347 351 347 346 348 349 352 351 360 11 22 24
132 153 152 164 166 182 199 190 199 172 178 179 181 194 212 221 205 191 194 201 207 217 216 221 227 214 161 181 185 187 194 206 214 213 215 217 230 238 236 230 230 255 257 234 172 192 194 213 217 213 232 270 294 312 310 298 301 304 301 306 38 65 30 7 353 341 339 344 341 335 332 340 348 347 348 349 345 351 349 350 351 347 359 16 24
143 159 157 167 174 185 195 207 197 198 173 174 190 188 189 204 217 223 215 213 194 194 193 204 212 235 169 172 187 198 213 220 218 223 231 232 229 229 230 235 233 231 232 230 209 201 208 214 204 228 237 244 269 283 291 295 306 304 294 301 74 101 83 12 348 322 324 346 340 336 331 336 348 349 344 343 343 346 347 348 347 346 344 2 28
172 161 166 171 177 185 195 201 203 193 194 186 186 196 197 199 213 217 216 217 223 222 214 202 197 206 209 179 194 204 213 224 225 212 217 223 224 220 213 215 219 219 205 202 201 200 195 199 213 220 242 245 248 254 263 281 296 292 297 298 134 130 121 158 22 359 335 346 338 332 327 328 341 347 339 340 337 345 343 344 346 349 340 341 8
187 177 162 169 176 186 192 199 196 201 194 197 197 199 198 200 203 211 217 222 220 212 219 224 218 204 203 212 207 202 205 213 224 223 213 214 218 218 209 207 201 203 203 193 185 198 208 212 219 228 230 229 236 238 255 270 277 281 285 294 48 107 105 219 99 8 345 341 330 323 327 321 333 344 340 339 341 341 342 343 342 343 343 331 348
181 183 172 167 175 182 190 192 200 203 211 195 193 200 201 203 200 204 206 207 213 228 231 230 230 229 226 220 216 218 217 220 222 223 221 218 216 213 209 205 205 204 195 202 208 207 212 219 223 220 224 228 232 238 237 247 256 264 271 286 108 133 170 219 98 22 27 343 309 307 321 323 324 334 336 337 340 339 344 338 337 335 340 329 337
184 191 187 176 178 180 188 193 197 194 206 217 205 201 202 204 217 215 213 212 210 205 208 218 226 234 238 238 235 236 231 221 217 214 215 215 213 214 216 211 204 200 194 194 197 198 200 205 210 217 222 227 222 227 233 243 247 256 267 267 157 175 190 199 170 203 298 282 290 310 320 322 319 322 329 334 332 338 339 335 333 332 331 328 328
187 193 191 180 186 192 188 190 196 202 196 201 212 212 205 210 212 220 226 232 233 229 224 215 212 211 215 222 227 231 237 244 240 232 227 219 209 212 222 223 219 208 200 197 194 192 192 196 201 212 217 222 222 227 228 233 238 242 252 229 179 194 201 197 204 213 222 254 284 305 299 304 310 308 310 318 322 334 342 332 326 325 330 326 334
213 184 193 193 189 200 205 200 193 200 202 202 202 212 214 212 212 212 217 223 234 240 241 239 235 225 222 219 219 220 222 221 222 224 224 216 212 224 236 237 227 214 206 199 198 194 195 201 207 210 211 214 217 222 222 224 228 225 237 224 193 202 200 191 206 219 210 214 258 276 290 293 301 303 297 299 308 321 329 323 326 327 330 322 342